Regional Weather Roundup
Issued by NWS Upton, NY

Current Version | Previous Version | Text Only | Print | Product List | Glossary Off
Versions: 1 2 3 4 5 6 7 8 9 10 11 12 13 14 15 16 17 18 19 20 21 22 23 24 25 26 27 28 29 30 31 32 33 34 35 36 37 38 39 40 41 42 43 44 45 46 47 48 49 50

000
ASUS41 KOKX 271308
RWROKX

REGIONAL WEATHER ROUNDUP
NATIONAL WEATHER SERVICE NEW YORK NY
900 AM EDT MON MAR 27 2017

NOTE: "FAIR" INDICATES FEW OR NO CLOUDS BELOW 12,000 FEET WITH NO
SIGNIFICANT WEATHER AND/OR OBSTRUCTIONS TO VISIBILITY.

NYZ071-072-176-178-NJZ106-104-271400-
NEW YORK CITY METRO AREA

CITY           SKY/WX    TMP DP  RH WIND       PRES   REMARKS
Central Park   NOT AVBL
Wall St Helipt LGT RAIN  41  40  96 E8        30.11F FOG
LaGuardia APRT LGT RAIN  40  38  93 VRB6      30.12S VSB 1/4
Kennedy INTL   DRZL/FOG  44  44 100 E7        30.11F VSB<1/4
Breezy Point     N/A     41 N/A N/A E9          N/A
Newark/Liberty HVY RAIN  41  41 100 CALM      30.11F VSB 1/4
Teterboro      RAIN      40  39  97 N3        30.11F VSB 3/4
$$

NYZ177-179-078>081-271400-
LONG ISLAND NEW YORK

CITY           SKY/WX    TMP DP  RH WIND       PRES   REMARKS
Jones Beach      N/A     41 N/A N/A E8          N/A
Matinecock PT    N/A     37 N/A N/A E14         N/A  WCI  29
Farmingdale    LGT RAIN  44  44 100 E9        30.10F VSB 1/4
MacArthur/ISP  FOG       45  45 100 SE9       30.10F VSB 1/4
Shirley        LGT RAIN  44  44 100 VRB6      30.12F VSB 1/4
Westhampton    FOG       43  42  97 E9        30.13F VSB 1/4
East Hampton   FOG       42  42  99 E7        30.12F VSB 1/4
Montauk          N/A     43  43 100 SE7       30.14F
$$

NYZ052-065-067-271400-
HUDSON VALLEY

CITY           SKY/WX    TMP DP  RH WIND       PRES   REMARKS
White Plains   RAIN      38  38 100 N3        30.11S VSB 1/4
Newburgh       LGT RAIN  36  36 100 CALM      30.11F FOG
Montgomery     LGT RAIN  37  35  92 NE3       30.09F
Poughkeepsie   CLOUDY    35  35 100 CALM      30.11S FOG
Albany         RAIN      37  34  89 VRB6      30.09F FOG     WCI  32
$$

NJZ001-105-106-008-010-013-015-019>022-104-271400-
NEW JERSEY

CITY           SKY/WX    TMP DP  RH WIND       PRES   REMARKS
Newark/Liberty HVY RAIN  41  41 100 CALM      30.11F VSB 1/4
Teterboro      RAIN      40  39  97 N3        30.11F VSB 3/4
Caldwell       HVY RAIN  39  37  92 CALM      30.12S VSB 1
Somerville     RAIN      40  38  93 N5        30.10S FOG
Linden         LGT RAIN  41  41  99 CALM      30.12S
Sussex         CLOUDY    37  36  96 CALM      30.10F
Andover          N/A     37  36  96 CALM      30.10F
Trenton        LGT RAIN  42  41  96 CALM      30.10S FOG
Millville      PTSUNNY   52  52 100 VRB6      30.08F
Atlantic City  CLOUDY    48  47  96 S6        30.10F
Wrightstown    CLOUDY    45  43  93 CALM      30.07F FOG
Toms River     FOG       46  46 100 SE5       30.10F VSB 3/4
Belmar         FOG       44  44 100 CALM      30.10F VSB 1/4
$$

PAZ047>061-062-071-271400-
EASTERN PENNSYLVANIA

CITY           SKY/WX    TMP DP  RH WIND       PRES   REMARKS
Philadelphia   LGT RAIN  44  43  96 SE6       30.09F FOG
Allentown      LGT RAIN  41  37  86 NE3       30.10F
Scranton       CLOUDY    42  40  92 CALM      30.05S
$$

CTZ002-004>006-009-010-012-RIZ004-006-007-MAZ004-011-015-271400-
SOUTHERN NEW ENGLAND
 IN CT

CITY           SKY/WX    TMP DP  RH WIND       PRES   REMARKS
Bradley INTL   LGT RAIN  34  34 100 N7        30.14F FOG     WCI  28
Hartford       MIX PCPN  35  35 100 N6        30.15F VSB 3/4 WCI  30
Danbury        LGT RAIN  37  37 100 VRB3      30.12F FOG
Wtrbury/Oxford LGT RAIN  36  30  80 E5        30.11F VSB 1/2 WCI  32
Bridgeport     LGT RAIN  40  38  93 E15       30.12F VSB 1/4 WCI  32
Meriden        LGT RAIN  37  34  89 N5        30.14F FOG     WCI  33
New Haven      LGT RAIN  40  39  97 E9        30.13F VSB 3/4 WCI  34
Chester        NOT AVBL
Groton         LGT RAIN  41  40  96 E10       30.14F VSB 1/2
Wilimantic     FOG       39  38  96 CALM      30.15F VSB 3/4

 IN RI

CITY           SKY/WX    TMP DP  RH WIND       PRES   REMARKS
Providence     DRZL/FOG  39  37  92 E6        30.17F VSB 1   WCI  35
Block Island   CLOUDY    42  41  96 SE14      30.15F FOG
Westerly       FOG       42  41  96 E10       30.16F VSB 3/4
 IN MA

CITY           SKY/WX    TMP DP  RH WIND       PRES   REMARKS
Boston         FOG       39  39 100 E13       30.19F VSB 1/2 WCI  31
Worcester      FOG       32  30  92 E7        30.13F VSB<1/4 WCI  26
Westfield      RAIN      33  33 100 N7        30.14F FOG     WCI  27
Provincetown   CLOUDY    42  39  89 SE15G23   30.19F
Nantucket      CLOUDY    43  39  86 SE17      30.19F
$$

ANZ330-335-338-340-345-350-353-355-271400-
COASTAL MARINE OBSERVATIONS


STATION/POSITION TIME  SKY/WX   TEMP    WIND        PRES    VSBY  WAVE
                                AIR SEA DIR/SP/G                  HT/PER
                 (UTC)          (F)     (DEG/KT/KT) (MB)    (MI)  (FT/S)
NY HARB ENTRANCE 1150            42 42   90/ 10/ 10 1019.7          5/ 8
20 S FIRE ISLAND 1250            44 40  150/  8/ 10 1019.0          5/ 7
GREAT SOUTH BAY  NOT AVBL
23 SSW MONTAUK P 1150            43 42              1021.0          5/ 7
15 E BARNEGAT LI 1230               43                N/A           5/ 7
HUDSON CANYON    1150            45 44  140/  6/  6 1021.0          5/ 7
KINGS POINT      1230            38 39              1019.5
EXECUTION ROCKS  NOT AVBL
CENTRAL LI SOUND 1200            39      90/ 12/ 16   N/A           2/ 3
EASTERN LI SOUND NOT AVBL
ROBBINS REEF     1230            40      50/  5/  6 1019.8
$$


>>>>>>>>>>>>>>>>>>>>>>>>>>>> KEY <<<<<<<<<<<<<<<<<<<<<<<<<<<
>                                                          <
>     SKY/WX - Sky Condition/Present Weather               <
>     TMP    - Temperature in Fahrenheit                   <
>     DP     - Dew Point in Fahrenheit                     <
>     RH     - Relative Humidity in Percent                <
>     WIND   - Direction (from) and Speed in MPH           <
>     PRES   - Mean Sea Level Pressure (inches of Hg)      <
>     WCI    - Wind Chill Index                            <
>     VSB    - VISIBILITY IN MILES                         <
>     HX     - HEAT INDEX                                  <
>     TC     - TEMPERATURE IN CELSIUS                      <
>     VRB    - VARIABLE WIND DIRECTION                     <
>                                                          <
>>>>>>>>>>>>>>>>>>>>>>>>>>>> KEY <<<<<<<<<<<<<<<<<<<<<<<<<<<



USA.gov is the U.S. government's official web portal to all federal, state and local government web resources and services.